Regional Weather Roundup
Issued by NWS

Home | Current Version | Previous Version | Graphics & Text | Print | Product List | Glossary On
Versions: 1 2 3 4 5 6 7 8 9 10 11 12 13 14 15 16 17 18 19 20 21 22 23 24 25 26 27 28 29 30 31 32 33 34 35 36 37 38 39 40 41 42 43 44 45 46 47 48 49 50
012
ASUS45 KPSR 261910
RWRAZ

ARIZONA HOURLY REGIONAL WEATHER ROUNDUP
NATIONAL WEATHER SERVICE PHOENIX AZ
1200 PM MST WED APR 26 2017

NOTE: FAIR INDICATES FEW OR NO CLOUDS BELOW 12,000 FEET WITH NO
SIGNIFICANT WEATHER AND/OR OBSTRUCTIONS TO VISIBILITY.

AZZ001>003-036-262000-
NORTHWEST ARIZONA

CITY           SKY/WX    TMP DP  RH WIND       PRES   REMARKS
BULLHEAD CITY  SUNNY     84  18   8 SW6       29.82F
KINGMAN        SUNNY     75  26  16 VRB3      29.91F
$$

AZZ004>008-015-016-018-262000-
NORTH CENTRAL ARIZONA

CITY           SKY/WX    TMP DP  RH WIND       PRES   REMARKS
GRAND CANYON   MOSUNNY   57  20  23 W12       29.99F
WILLIAMS       MOSUNNY   59  21  23 W14G20    30.01F
PRESCOTT       SUNNY     64  16  15 VRB6      29.98F
FLAGSTAFF      SUNNY     58  17  20 VRB7G22   30.00F
PAYSON         SUNNY     66  12  12 VRB7G16   30.00S
PAGE           CLOUDY    62  20  19 N9        29.90F
$$

AZZ009>014-017-262000-
NORTHEAST ARIZONA

CITY           SKY/WX    TMP DP  RH WIND       PRES   REMARKS
WINSLOW        SUNNY     65  11  12 CALM      29.94F
SAINT JOHNS    SUNNY     62  18  18 VRB5      29.93F
WINDOW ROCK    SUNNY     59  15  18 W13G18    29.96F
SHOW LOW       SUNNY     57  10  15 SW8G16    29.98F
$$

AZZ540-542>544-546-548-262000-
GREATER PHOENIX AREA

CITY           SKY/WX    TMP DP  RH WIND       PRES   REMARKS
PHOENIX        MOSUNNY   80  19  10 VRB5      29.82F
BUCKEYE        SUNNY     81  23  12 S3        29.84F
GLENDALE       PTSUNNY   84  18   8 SW8       29.84F
LUKE AFB       SUNNY     82  18   9 CALM      29.82F
DEER VALLEY    SUNNY     82  12   7 NW7       29.83F
SCOTTSDALE     SUNNY     79  20  11 VRB5      29.85F
MESA-FALCON    PTSUNNY  N/A N/A N/A W9        29.85F
CHANDLER       SUNNY     81  18   9 SW8       29.84F
$$

AZZ539-553-262000-
SOUTHWEST MARICOPA COUNTY AND PINAL COUNTY

CITY           SKY/WX    TMP DP  RH WIND       PRES   REMARKS
CASA GRANDE    SUNNY     79  21  11 VRB6      29.86F
GILA BEND      SUNNY     85  17   8 CALM      29.84S
$$

AZZ503-504-507>509-262000-
SOUTHEAST ARIZONA

CITY           SKY/WX    TMP DP  RH WIND       PRES   REMARKS
TUCSON         SUNNY     79  17  10 W3        29.92F
DAVIS-MONTHAN  MOSUNNY   77  17  10 NW10G22   29.91F
RYAN FIELD     SUNNY     79  21  11 NW14      29.91
NOGALES        SUNNY     75  19  12 W10       29.96S
SIERRA VISTA   SUNNY     73  12   9 W16G22    29.98F
DOUGLAS        SUNNY     75  19  12 NW13G22   29.94F
SAFFORD        MOSUNNY   77  10   7 NW15G24   29.87F
$$

AZZ532-262000-
SOUTHWEST ARIZONA

CITY           SKY/WX    TMP DP  RH WIND       PRES   REMARKS
YUMA           PTSUNNY   86  30  13 VRB5      29.83F
$$

CAZ041-043-047-048-061-525>527-560>570-262000-
SOUTHERN CALIFORNIA

CITY           SKY/WX    TMP DP  RH WIND       PRES   REMARKS
DOWNTOWN L.A.  MOSUNNY   76  52  43 VRB6      29.89S
L.A. AIRPORT   MOSUNNY   69  52  54 SW12      29.91F
SAN DIEGO      MOSUNNY   68  53  58 SW8       29.94F
BURBANK        MOSUNNY   83  39  21 NW17G23   29.88F
ONTARIO        PTSUNNY   74  42  31 S6        29.90F
RIVERSIDE      MOSUNNY   76  45  33 MISG      29.90F
PALM SPRINGS   MOSUNNY   88  36  15 N3        29.83F
EL CENTRO NAS  MOSUNNY   84  39  20 VRB5      29.82F
IMPERIAL       MOSUNNY   86  43  22 CALM      29.80F
BLYTHE         SUNNY     85  27  12 CALM      29.83F
NEEDLES        SUNNY     86  19   8 SE3       29.83F
$$

NVZ020-UTZ003-262000-
SOUTHERN NEVADA-UTAH

CITY           SKY/WX    TMP DP  RH WIND       PRES   REMARKS
LAS VEGAS      PTSUNNY   78  22  12 VRB7      29.84F
SALT LAKE CITY PTSUNNY   57  35  43 VRB6      29.85F
$$

NMZ009-TXZ055-262000-
NEW MEXICO-WEST TEXAS

CITY           SKY/WX    TMP DP  RH WIND       PRES   REMARKS
ALBUQUERQUE    MOSUNNY   59  23  25 W15G24    29.90F
EL PASO        MOSUNNY   72  15  11 W18G25    29.90F
$$


........................KEY........................
SKY/WX - SKY CONDITION/WEATHER
TMP    - TEMPERATURE IN FAHRENHEIT
DP     - DEW POINT IN FAHRENHEIT
RH     - RELATIVE HUMIDITY IN PERCENT
WIND   - DIRECTION AND SPEED IN MILES PER HOUR (MPH)
VRB    - VARIABLE WIND DIRECTION
PRES   - MEAN SEA LEVEL PRESSURE IN INCHES OF MERCURY
         F - FALLING PRESSURE   R - RISING PRESSURE
         S - STEADY PRESSURE
VSB    - VISIBILITY IN MILES
HX     - HEAT INDEX IN FAHRENHEIT
WCI    - WIND CHILL INDEX IN FAHRENHEIT
TC     - TEMPERATURE IN CELSIUS WHICH IS ALSO KNOWN AS
         TEMPERATURE IN CENTIGRADE
AFB    - AIR FORCE BASE
         LUKE AFB IS LUKE AIR FORCE BASE
         DAVIS-MONTHAN IS DAVIS-MONTHAN AIR FORCE BASE
NAS    - NAVAL AIR STATION
         EL CENTRO NAS IS EL CENTRO NAVAL AIR STATION
N/A    - NOT AVAILABLE





USA.gov is the U.S. government's official web portal to all federal, state and local government web resources and services.